Date,TemperatureHighF,TemperatureAvgF,TemperatureLowF,DewpointHighF,DewpointAvgF,DewpointLowF,HumidityHigh,HumidityAvg,HumidityLow,PressureMaxIn,PressureMinIn,WindSpeedMaxMPH,WindSpeedAvgMPH,GustSpeedMaxMPH,PrecipitationSumIn
2013-1-1,20.0,4.6,-9.0,16.0,0.3,-13.0,92,82,73,30.45,30.20,0,0,0,0.00
2013-1-2,21.0,17.8,15.0,18.0,15.1,13.0,90,89,83,30.23,30.08,0,0,0,0.00
2013-1-3,19.0,12.4,9.0,15.0,7.8,3.0,86,81,71,30.42,30.22,0,0,0,0.00
2013-1-4,28.0,20.1,14.0,18.0,14.1,11.0,86,77,63,30.26,30.16,0,0,0,0.00
2013-1-5,24.0,16.2,11.0,15.0,11.4,8.0,89,81,66,30.22,29.99,0,0,0,0.00
2013-1-6,21.0,14.9,9.0,14.0,9.8,4.0,89,80,69,30.37,30.13,0,0,0,0.00
2013-1-7,36.0,28.8,19.0,26.0,22.4,15.0,84,77,65,30.15,30.01,0,0,0,0.00
2013-1-8,36.0,26.9,17.0,29.0,22.5,14.0,90,84,71,30.09,29.86,0,0,0,0.00
2013-1-9,34.0,30.2,26.0,27.0,23.1,20.0,85,75,65,30.46,30.02,0,0,0,0.00
2013-1-10,41.0,35.1,28.0,32.0,26.1,22.0,92,71,48,30.40,29.82,0,0,0,0.00
2013-1-11,40.0,36.5,34.0,39.0,34.5,32.0,95,94,92,29.82,29.45,0,0,0,0.00
2013-1-12,37.0,13.9,3.0,35.0,8.1,-3.0,92,77,68,30.22,29.47,0,0,0,0.00
2013-1-13,8.0,3.7,0.0,2.0,-1.7,-5.0,82,78,72,30.42,30.22,0,0,0,0.00
2013-1-14,14.0,7.3,3.0,6.0,1.9,-1.0,92,78,64,30.58,30.41,0,0,0,0.00
2013-1-15,30.0,19.3,10.0,19.0,12.2,6.0,87,74,57,30.44,29.96,0,0,0,0.00
2013-1-16,36.0,25.9,11.0,31.0,18.7,-1.0,91,75,50,30.36,29.78,0,0,0,0.00
2013-1-17,19.0,11.4,4.0,10.0,2.6,-4.0,78,67,59,30.54,30.35,0,0,0,0.00
2013-1-18,39.0,29.1,16.0,30.0,23.3,10.0,86,79,69,30.45,29.85,0,0,0,0.00
2013-1-19,39.0,23.4,2.0,31.0,17.3,-5.0,90,78,59,30.36,29.77,0,0,0,0.00
2013-1-20,7.0,2.1,-2.0,1.0,-5.4,-10.0,79,70,59,30.57,30.36,0,0,0,0.00
2013-1-21,-2.0,-6.3,-11.0,-9.0,-13.8,-18.0,78,69,62,30.55,30.47,0,0,0,0.00
2013-1-22,5.0,-4.0,-12.0,-2.0,-10.8,-17.0,78,72,65,30.62,30.44,0,0,0,0.00
2013-1-23,15.0,6.8,-4.0,8.0,-1.8,-15.0,85,68,51,30.79,30.33,0,0,0,0.00
2013-1-24,14.0,3.2,-5.0,2.0,-7.2,-16.0,66,61,53,30.85,30.33,0,0,0,0.00
2013-1-25,18.0,11.8,3.0,13.0,3.7,-4.0,80,69,59,30.47,30.11,0,0,0,0.00
2013-1-26,24.0,12.0,-1.0,13.0,3.6,-5.0,92,70,56,30.50,30.25,0,0,0,0.00
2013-1-27,33.0,29.6,23.0,29.0,22.8,13.0,93,76,62,30.25,29.90,0,0,0,0.00
2013-1-28,35.0,32.3,31.0,33.0,30.2,29.0,94,93,90,29.99,29.90,0,0,0,0.00
2013-1-29,35.0,31.5,27.0,31.0,28.0,22.0,94,88,80,29.85,29.63,0,0,0,0.00
2013-1-30,27.0,17.0,8.0,22.0,11.0,1.0,83,77,71,29.89,29.77,0,0,0,0.00
2013-1-31,2.0,-1.4,-7.0,-6.0,-8.7,-15.0,76,70,66,30.46,30.07,0,0,0,0.00
2013-2-1,5.0,-3.7,-12.0,1.0,-10.4,-18.0,84,73,58,30.50,30.24,0,0,0,0.00
2013-2-2,11.0,5.5,1.0,6.0,-0.1,-4.0,92,77,65,30.36,30.14,0,0,0,0.00
2013-2-3,12.0,9.3,4.0,9.0,4.0,-1.0,92,79,67,30.25,30.12,0,0,0,0.00
2013-2-4,15.0,9.8,3.0,11.0,2.4,-3.0,87,72,54,30.22,29.89,0,0,0,0.00
2013-2-5,28.0,21.8,8.0,25.0,16.5,4.0,91,81,59,30.20,29.80,0,0,0,0.00
2013-2-6,27.0,15.6,4.0,20.0,11.5,0.0,87,84,73,30.23,30.06,0,0,0,0.00
2013-2-7,27.0,24.6,20.0,23.0,21.0,17.0,91,86,78,30.38,30.11,0,0,0,0.00
2013-2-8,26.0,22.5,16.0,21.0,17.5,12.0,85,81,74,30.49,30.33,0,0,0,0.00
2013-2-9,32.0,28.3,25.0,29.0,24.7,21.0,91,87,84,30.33,30.03,0,0,0,0.00
2013-2-10,33.0,30.1,28.0,31.0,27.7,25.0,94,91,87,30.03,29.38,0,0,0,0.00
2013-2-11,29.0,23.7,14.0,27.0,19.2,10.0,93,83,76,30.16,29.45,0,0,0,0.00
2013-2-12,33.0,22.8,13.0,24.0,17.4,9.0,92,80,67,30.16,29.93,0,0,0,0.00
2013-2-13,37.0,27.6,18.0,31.0,23.0,15.0,92,83,68,29.93,29.67,0,0,0,0.00
2013-2-14,32.0,25.2,11.0,30.0,18.3,3.0,93,77,48,30.30,29.68,0,0,0,0.00
2013-2-15,18.0,9.3,3.0,6.0,2.1,-1.0,84,72,57,30.45,30.30,0,0,0,0.00
2013-2-16,25.0,9.4,1.0,11.0,3.4,-2.0,88,77,51,30.42,30.25,0,0,0,0.00
2013-2-17,32.0,21.1,8.0,24.0,14.7,3.0,84,76,65,30.26,29.73,0,0,0,0.00
2013-2-18,33.0,22.3,6.0,30.0,17.0,1.0,89,80,73,29.95,29.62,0,0,0,0.00
2013-2-19,6.0,2.5,-3.0,1.0,-5.2,-10.0,81,70,58,30.54,29.95,0,0,0,0.00
2013-2-20,17.0,4.5,-7.0,3.0,-3.6,-12.0,81,69,52,30.64,30.54,0,0,0,0.00
2013-2-21,24.0,14.3,3.0,14.0,6.2,-2.0,83,70,55,30.60,30.23,0,0,0,0.00
2013-2-22,29.0,22.9,20.0,22.0,18.7,14.0,88,84,69,30.23,29.99,0,0,0,0.00
2013-2-23,28.0,21.4,13.0,22.0,17.5,10.0,90,85,73,30.09,29.97,0,0,0,0.00
2013-2-24,38.0,19.1,4.0,23.0,12.8,1.0,90,77,54,30.24,30.08,0,0,0,0.00
2013-2-25,28.0,23.6,19.0,21.0,18.9,15.0,87,82,73,30.23,30.06,0,0,0,0.00
2013-2-26,36.0,24.5,13.0,27.0,19.7,10.0,91,82,69,30.09,29.93,0,0,0,0.00
2013-2-27,40.0,31.4,27.0,27.0,24.1,22.0,84,75,54,30.06,29.91,0,0,0,0.00
2013-2-28,31.0,28.0,23.0,23.0,20.6,16.0,82,73,67,30.25,30.06,0,0,0,0.00
2013-3-1,31.0,24.3,16.0,18.0,15.8,10.0,80,70,56,30.40,30.25,0,0,0,0.00
2013-3-2,33.0,19.6,5.0,15.0,10.6,2.0,89,70,43,30.40,30.22,0,0,0,0.00
2013-3-3,35.0,26.4,19.0,15.0,12.5,10.0,70,56,39,30.22,29.99,0,0,0,0.00
2013-3-4,28.0,24.9,23.0,21.0,18.4,14.0,89,77,57,30.05,29.96,0,0,0,0.00
2013-3-5,31.0,25.7,22.0,25.0,22.0,18.0,91,85,76,30.34,30.00,0,0,0,0.00
2013-3-6,28.0,22.4,12.0,19.0,16.9,9.0,88,79,69,30.45,30.34,0,0,0,0.00
2013-3-7,34.0,20.1,4.0,22.0,13.3,1.0,90,76,58,30.43,30.32,0,0,0,0.00
2013-3-8,42.0,29.0,18.0,30.0,22.9,15.0,89,79,61,30.36,30.10,0,0,0,0.00
2013-3-9,37.0,35.1,33.0,35.0,32.7,28.0,94,91,79,30.10,29.70,0,0,0,0.00
2013-3-10,34.0,32.1,28.0,32.0,27.7,23.0,94,84,78,29.98,29.80,0,0,0,0.00
2013-3-11,30.0,26.6,22.0,23.0,20.9,15.0,86,79,68,29.90,29.78,0,0,0,0.00
2013-3-12,28.0,23.6,20.0,20.0,15.6,11.0,81,72,53,30.24,29.86,0,0,0,0.00
2013-3-13,29.0,20.0,10.0,18.0,13.4,7.0,87,76,60,30.43,30.24,0,0,0,0.00
2013-3-14,45.0,31.0,24.0,29.0,23.7,18.0,89,75,52,30.28,30.03,0,0,0,0.00
2013-3-15,34.0,30.8,24.0,31.0,27.5,22.0,91,88,82,30.03,29.84,0,0,0,0.00
2013-3-16,24.0,20.0,12.0,22.0,13.3,3.0,90,75,54,30.29,29.92,0,0,0,0.00
2013-3-17,28.0,17.6,6.0,21.0,7.9,0.0,77,66,52,30.32,29.91,0,0,0,0.00
2013-3-18,29.0,21.2,11.0,27.0,15.9,5.0,92,80,71,29.91,29.62,0,0,0,0.00
2013-3-19,21.0,12.1,5.0,7.0,2.2,-2.0,77,65,46,30.27,29.87,0,0,0,0.00
2013-3-20,20.0,11.7,4.0,6.0,0.7,-4.0,70,61,50,30.30,30.19,0,0,0,0.00
2013-3-21,28.0,15.0,0.0,11.0,4.5,-4.0,86,64,47,30.20,30.11,0,0,0,0.00
2013-3-22,38.0,21.3,5.0,17.0,10.6,1.0,87,65,38,30.15,30.09,0,0,0,0.00
2013-3-23,36.0,25.9,14.0,21.0,15.9,10.0,88,67,45,30.19,30.11,0,0,0,0.00
2013-3-24,34.0,28.8,25.0,25.0,22.4,20.0,89,77,62,30.14,30.01,0,0,0,0.00
2013-3-25,38.0,29.7,23.0,23.0,18.5,15.0,82,63,47,30.25,30.08,0,0,0,0.00
2013-3-26,37.0,27.4,20.0,23.0,19.3,15.0,82,72,53,30.34,30.25,0,0,0,0.00
2013-3-27,42.0,29.8,16.0,24.0,18.2,13.0,91,65,41,30.38,30.33,0,0,0,0.00
2013-3-28,46.0,32.8,19.0,29.0,22.5,16.0,89,68,47,30.37,30.29,0,0,0,0.00
2013-3-29,52.0,40.1,31.0,38.0,31.9,25.0,81,73,54,30.30,30.06,0,0,0,0.00
2013-3-30,51.0,43.1,34.0,42.0,36.0,-99.9,89,79,69,30.06,29.86,0,0,0,0.00
2013-3-31,38.0,32.9,23.0,31.0,23.9,13.0,92,71,41,30.12,29.81,0,0,0,0.00
2013-4-1,33.0,23.9,16.0,18.0,13.8,10.0,78,66,48,30.31,30.12,0,0,0,0.00
2013-4-2,37.0,26.7,18.0,17.0,15.2,13.0,83,64,38,30.40,30.30,0,0,0,0.00
2013-4-3,46.0,33.2,17.0,33.0,22.4,14.0,89,66,42,30.42,30.06,0,0,0,0.00
2013-4-4,48.0,41.6,32.0,33.0,29.0,24.0,82,62,43,30.19,30.01,0,0,0,0.00
2013-4-5,42.0,32.6,25.0,32.0,24.5,18.0,90,73,42,30.25,29.89,0,0,0,0.00
2013-4-6,52.0,40.8,35.0,43.0,34.4,30.0,89,78,60,29.90,29.51,0,0,0,0.00
2013-4-7,49.0,40.4,35.0,39.0,33.8,30.0,90,78,59,29.95,29.75,0,0,0,0.00
2013-4-8,44.0,41.3,40.0,41.0,38.6,35.0,94,90,85,30.05,29.67,0,0,0,0.00
2013-4-9,42.0,37.2,32.0,36.0,30.9,27.0,92,78,61,30.18,29.98,0,0,0,0.00
2013-4-10,37.0,33.6,30.0,29.0,26.8,24.0,91,76,62,30.20,29.91,0,0,0,0.00
2013-4-11,34.0,32.1,29.0,31.0,28.0,26.0,93,85,71,29.94,29.75,0,0,0,0.00
2013-4-12,31.0,30.3,30.0,28.0,27.3,26.0,90,89,88,29.87,29.86,0,0,0,0.00
2013-4-13,36.0,31.5,28.0,27.0,25.7,24.0,92,79,65,29.97,29.85,0,0,0,0.00
2013-4-14,36.0,32.0,29.0,34.0,28.0,23.0,93,85,73,29.97,29.48,0,0,0,0.00
2013-4-15,39.0,35.1,32.0,33.0,28.8,25.0,89,78,68,29.99,29.52,0,0,0,0.00
2013-4-16,44.0,36.5,32.0,29.0,27.5,26.0,82,70,53,30.33,29.98,0,0,0,0.00
2013-4-17,41.0,36.4,33.0,34.0,29.7,27.0,92,77,68,30.33,29.94,0,0,0,0.00
2013-4-18,34.0,31.7,30.0,32.0,29.6,28.0,100,92,89,29.96,29.56,0,0,0,0.00
2013-4-19,37.0,31.7,28.0,29.0,25.9,19.0,94,81,52,30.02,29.53,0,0,0,0.00
2013-4-20,43.0,31.0,20.0,20.0,17.4,14.0,85,59,30,30.32,30.01,0,0,0,0.00
2013-4-21,48.0,39.7,32.0,45.0,34.6,19.0,91,82,54,30.33,30.01,0,0,0,0.00
2013-4-22,42.0,35.9,31.0,36.0,31.1,29.0,93,83,63,30.22,30.12,0,0,0,0.00
2013-4-23,40.0,32.9,26.0,29.0,24.4,18.0,92,73,41,30.19,30.09,0,0,0,0.00
2013-4-24,48.0,35.9,27.0,34.0,27.7,23.0,91,74,41,30.10,29.93,0,0,0,0.00
2013-4-25,52.0,39.2,31.0,32.0,29.1,27.0,92,69,42,30.22,30.00,0,0,0,0.00
2013-4-26,70.0,56.6,44.0,45.0,38.7,31.0,76,53,31,30.11,29.95,0,0,0,0.00
2013-4-27,74.0,58.4,38.0,47.0,36.3,31.0,78,47,23,30.11,29.85,0,0,0,0.00
2013-4-28,80.0,63.3,50.0,52.0,47.0,44.0,87,59,32,29.85,29.59,0,0,0,0.00
2013-4-29,76.0,60.1,46.0,56.0,45.2,39.0,88,61,30,29.78,29.49,0,0,0,0.00
2013-4-30,67.0,62.4,55.0,59.0,45.5,27.0,83,57,24,29.93,29.35,0,0,0,0.00
2013-5-1,55.0,40.5,33.0,39.0,32.5,28.0,91,74,49,30.48,29.92,0,0,0,0.00
2013-5-2,47.0,39.4,34.0,29.0,26.7,24.0,75,61,45,30.56,30.43,0,0,0,0.00
2013-5-3,37.0,34.3,31.0,33.0,27.9,23.0,88,78,63,30.44,30.18,0,0,0,0.00
2013-5-4,45.0,38.0,32.0,40.0,34.5,29.0,92,88,82,30.19,30.13,0,0,0,0.00
2013-5-5,66.0,49.2,38.0,49.0,41.3,34.0,90,76,54,30.19,30.07,0,0,0,0.00
2013-5-6,75.0,60.2,44.0,51.0,46.2,41.0,90,64,38,30.10,29.98,0,0,0,0.00
2013-5-7,79.0,65.2,51.0,52.0,48.5,45.0,85,58,33,30.03,29.91,0,0,0,0.00
2013-5-8,76.0,64.7,58.0,56.0,51.6,47.0,87,65,39,29.97,29.90,0,0,0,0.00
2013-5-9,59.0,53.0,44.0,54.0,47.1,30.0,88,80,57,30.10,29.91,0,0,0,0.00
2013-5-10,67.0,50.7,35.0,39.0,26.5,-99.9,76,45,21,30.12,29.85,0,0,0,0.00
2013-5-11,56.0,46.3,39.0,40.0,26.0,-99.9,68,47,32,30.18,29.85,0,0,0,0.00
2013-5-12,59.0,45.5,33.0,26.0,21.7,16.0,67,42,20,30.24,30.09,0,0,0,0.00
2013-5-13,74.0,56.6,41.0,49.0,35.3,22.0,69,46,33,30.11,29.61,0,0,0,0.00
2013-5-14,97.0,74.4,53.0,58.0,46.5,33.0,75,41,16,29.64,29.40,0,0,0,0.00
2013-5-15,79.0,66.0,53.0,49.0,46.2,43.0,73,50,30,29.86,29.62,0,0,0,0.00
2013-5-16,85.0,65.9,54.0,50.0,28.2,-99.9,74,44,24,29.87,29.78,0,0,0,0.00
2013-5-17,68.0,56.9,55.0,54.0,46.0,-99.9,92,79,28,29.94,29.83,0,0,0,0.00
2013-5-18,80.0,64.9,56.0,66.0,58.9,53.0,95,82,59,29.96,29.74,0,0,0,0.00
2013-5-19,79.0,67.9,63.0,67.0,62.9,60.0,94,84,62,29.74,29.49,0,0,0,0.00
2013-5-20,70.0,64.5,60.0,61.0,58.9,56.0,94,83,64,29.52,29.44,0,0,0,0.00
2013-5-21,59.0,54.9,47.0,57.0,52.6,44.0,94,92,90,29.69,29.47,0,0,0,0.00
2013-5-22,52.0,47.7,44.0,48.0,45.0,42.0,95,91,73,29.97,29.68,0,0,0,0.00
2013-5-23,67.0,53.4,43.0,43.0,37.0,30.0,87,57,28,30.32,30.00,0,0,0,0.00
2013-5-24,68.0,55.4,44.0,52.0,39.8,30.0,88,57,38,30.36,30.14,0,0,0,0.00
2013-5-25,60.0,55.3,53.0,50.0,48.2,44.0,90,77,66,30.23,30.17,0,0,0,0.00
2013-5-26,57.0,54.6,52.0,49.0,44.1,39.0,77,68,55,30.19,30.01,0,0,0,0.00
2013-5-27,61.0,56.8,53.0,54.0,51.2,48.0,92,82,71,30.01,29.80,0,0,0,0.00
2013-5-28,60.0,55.8,53.0,56.0,52.8,50.0,94,90,83,29.80,29.68,0,0,0,0.00
2013-5-29,75.0,64.6,54.0,68.0,60.0,52.0,94,85,75,29.78,29.58,0,0,0,0.00
2013-5-30,73.0,67.4,63.0,64.0,62.2,61.0,93,84,68,29.62,29.45,0,0,0,0.00
2013-5-31,74.0,66.7,61.0,61.0,55.6,52.0,91,69,49,29.51,29.45,0,0,0,0.00
2013-6-1,72.0,59.4,51.0,59.0,52.0,43.0,88,77,55,29.91,29.49,0,0,0,0.00
2013-6-2,67.0,55.8,46.0,46.0,42.3,40.0,83,63,39,30.06,29.91,0,0,0,0.00
2013-6-3,70.0,59.0,45.0,48.0,44.8,41.0,91,62,38,30.03,29.90,0,0,0,0.00
2013-6-4,63.0,59.1,55.0,54.0,50.5,46.0,88,73,57,30.03,29.93,0,0,0,0.00
2013-6-5,64.0,56.7,53.0,57.0,52.7,50.0,92,87,75,30.02,29.91,0,0,0,0.00
2013-6-6,57.0,52.8,50.0,52.0,49.5,47.0,92,88,82,30.02,29.94,0,0,0,0.00
2013-6-7,66.0,56.9,52.0,53.0,51.0,49.0,90,81,62,30.03,29.88,0,0,0,0.00
2013-6-8,70.0,61.9,54.0,57.0,53.6,51.0,91,75,56,29.89,29.84,0,0,0,0.00
2013-6-9,67.0,58.9,56.0,62.0,55.3,54.0,92,88,77,29.85,29.74,0,0,0,0.00
2013-6-10,74.0,64.9,61.0,62.0,59.8,58.0,94,84,63,29.83,29.77,0,0,0,0.00
2013-6-11,78.0,66.7,58.0,69.0,62.1,56.0,95,86,68,29.86,29.76,0,0,0,0.00
2013-6-12,75.0,65.0,58.0,65.0,59.3,53.0,95,83,64,29.91,29.75,0,0,0,0.00
2013-6-13,82.0,68.2,57.0,59.0,54.7,50.0,84,64,42,30.06,29.91,0,0,0,0.00
2013-6-14,79.0,69.1,59.0,63.0,57.7,51.0,87,68,55,30.03,29.82,0,0,0,0.00
2013-6-15,79.0,69.4,62.0,69.0,63.9,59.0,94,83,62,29.85,29.79,0,0,0,0.00
2013-6-16,86.0,69.9,59.0,60.0,54.4,46.0,93,62,27,29.88,29.79,0,0,0,0.00
2013-6-17,81.0,70.6,61.0,61.0,56.5,52.0,82,63,41,29.97,29.82,0,0,0,0.00
2013-6-18,80.0,66.3,53.0,61.0,55.2,46.0,80,68,48,30.05,29.96,0,0,0,0.00
2013-6-19,85.0,73.2,63.0,66.0,59.4,56.0,79,64,42,30.01,29.88,0,0,0,0.00
2013-6-20,87.0,76.0,70.0,69.0,63.9,60.0,76,67,46,29.93,29.84,0,0,0,0.00
2013-6-22,84.0,79.8,72.0,71.0,69.0,67.0,84,70,62,29.86,29.78,0,0,0,0.00
2013-6-23,81.0,73.3,66.0,68.0,66.2,61.0,94,79,58,29.82,29.62,0,0,0,0.00
2013-6-24,82.0,72.0,63.0,70.0,65.7,61.0,95,81,63,29.85,29.75,0,0,0,0.00
2013-6-25,88.0,76.0,66.0,74.0,67.9,62.0,89,77,59,29.78,29.64,0,0,0,0.00
2013-6-26,86.0,78.2,72.0,74.0,70.0,65.0,93,77,55,29.75,29.59,0,0,0,0.00
2013-6-27,85.0,76.8,68.0,66.0,61.3,54.0,87,61,36,29.77,29.73,0,0,0,0.00
2013-6-28,77.0,71.3,65.0,63.0,59.5,56.0,92,66,56,29.76,29.71,0,0,0,0.00
2013-6-29,78.0,68.1,62.0,61.0,58.2,51.0,93,73,50,29.95,29.70,0,0,0,0.00
2013-6-30,84.0,69.1,56.0,59.0,54.4,51.0,87,63,35,30.07,29.95,0,0,0,0.00
2013-7-1,87.0,72.5,57.0,62.0,57.5,54.0,92,63,37,30.14,30.07,0,0,0,0.00
2013-7-2,87.0,72.2,59.0,59.0,55.2,51.0,85,59,34,30.11,30.00,0,0,0,0.00
2013-7-3,88.0,71.8,58.0,62.0,57.2,52.0,94,65,31,30.02,29.90,0,0,0,0.00
2013-7-4,87.0,75.9,65.0,64.0,58.4,54.0,77,57,34,29.91,29.79,0,0,0,0.00
2013-7-5,86.0,78.0,70.0,66.0,61.7,56.0,70,58,47,29.83,29.72,0,0,0,0.00
2013-7-6,86.0,78.0,73.0,70.0,64.8,61.0,69,64,57,29.80,29.72,0,0,0,0.00
2013-7-7,91.0,79.6,71.0,75.0,68.9,66.0,92,71,54,29.82,29.73,0,0,0,0.00
2013-7-8,89.0,73.4,64.0,72.0,65.9,-99.9,93,81,55,29.95,29.82,0,0,0,0.00
2013-7-9,83.0,76.1,68.0,72.0,68.6,64.0,93,78,64,29.89,29.66,0,0,0,0.00
2013-7-10,82.0,70.0,60.0,64.0,55.6,-99.9,86,64,43,30.00,29.86,0,0,0,0.00
2013-7-11,83.0,71.7,58.0,62.0,58.7,56.0,94,67,41,30.06,29.92,0,0,0,0.00
2013-7-12,87.0,77.0,69.0,65.0,61.1,57.0,69,59,46,29.94,29.82,0,0,0,0.00
2013-7-13,77.0,71.9,67.0,69.0,64.7,59.0,93,79,59,30.02,29.84,0,0,0,0.00
2013-7-14,86.0,75.3,69.0,70.0,65.5,60.0,86,72,54,30.12,29.99,0,0,0,0.00
2013-7-15,85.0,77.6,70.0,70.0,67.1,64.0,86,71,52,30.17,30.09,0,0,0,0.00
2013-7-16,90.0,81.6,74.0,74.0,71.4,69.0,86,72,54,30.14,30.09,0,0,0,0.00
2013-7-17,90.0,82.1,74.0,74.0,70.8,67.0,82,69,53,30.18,30.03,0,0,0,0.00
2013-7-18,90.0,83.2,75.0,73.0,71.2,69.0,82,68,52,30.03,29.69,0,0,0,0.00
2013-7-19,83.0,78.2,72.0,71.0,64.8,59.0,82,65,48,29.86,29.65,0,0,0,0.00
2013-7-20,83.0,70.6,63.0,66.0,60.0,-99.9,88,72,49,29.90,29.82,0,0,0,0.00
2013-7-21,84.0,71.1,59.0,70.0,61.9,52.0,91,74,57,29.91,29.73,0,0,0,0.00
2013-7-22,84.0,73.6,66.0,72.0,64.6,56.0,89,75,51,29.82,29.62,0,0,0,0.00
2013-7-23,80.0,67.8,57.0,57.0,55.4,53.0,89,67,44,29.98,29.80,0,0,0,0.00
2013-7-24,80.0,68.1,59.0,63.0,57.2,52.0,85,69,45,30.04,29.92,0,0,0,0.00
2013-7-25,79.0,71.3,61.0,68.0,61.4,57.0,88,72,53,29.93,29.85,0,0,0,0.00
2013-7-26,71.0,63.1,55.0,63.0,54.9,48.0,88,75,60,30.05,29.86,0,0,0,0.00
2013-7-27,63.0,56.3,50.0,50.0,47.7,46.0,90,74,55,30.06,29.92,0,0,0,0.00
2013-7-28,76.0,59.7,48.0,56.0,49.5,44.0,88,70,48,30.04,29.94,0,0,0,0.00
2013-7-29,76.0,64.7,53.0,59.0,54.9,50.0,93,73,46,30.10,30.03,0,0,0,0.00
2013-7-30,71.0,65.8,62.0,65.0,61.4,56.0,93,86,69,30.05,30.00,0,0,0,0.00
2013-7-31,77.0,67.5,61.0,66.0,59.8,52.0,94,78,46,30.04,29.95,0,0,0,0.00
2013-8-1,81.0,67.5,55.0,63.0,56.3,51.0,86,69,46,30.00,29.82,0,0,0,0.00
2013-8-2,78.0,67.6,58.0,59.0,55.4,52.0,86,67,43,30.00,29.81,0,0,0,0.00
2013-8-3,80.0,66.3,54.0,56.0,53.1,50.0,92,66,38,30.16,30.00,0,0,0,0.00
2013-8-4,75.0,63.6,53.0,60.0,54.3,49.0,91,73,49,30.20,29.96,0,0,0,0.00
2013-8-5,81.0,68.3,61.0,69.0,62.1,56.0,94,81,61,29.99,29.74,0,0,0,0.00
2013-8-6,83.0,67.4,56.0,69.0,60.7,54.0,94,80,57,29.80,29.63,0,0,0,0.00
2013-8-7,78.0,66.1,58.0,58.0,55.6,51.0,94,72,41,29.99,29.74,0,0,0,0.00
2013-8-8,72.0,63.1,55.0,61.0,57.1,53.0,94,82,61,30.02,29.95,0,0,0,0.00
2013-8-9,74.0,65.6,58.0,59.0,55.4,52.0,93,72,49,30.09,29.97,0,0,0,0.00
2013-8-10,77.0,66.9,59.0,59.0,55.0,52.0,87,67,46,30.16,30.04,0,0,0,0.00
2013-8-11,82.0,71.0,64.0,67.0,62.0,57.0,89,74,56,30.05,29.95,0,0,0,0.00
2013-8-12,81.0,68.7,59.0,62.0,57.8,54.0,91,71,42,30.02,29.96,0,0,0,0.00
2013-8-13,79.0,65.2,55.0,56.0,50.3,-99.9,92,64,36,30.16,30.02,0,0,0,0.00
2013-8-14,76.0,62.0,52.0,56.0,49.9,-99.9,93,70,42,30.16,30.06,0,0,0,0.00
2013-8-15,77.0,59.5,56.0,60.0,40.2,-99.9,89,67,49,30.10,30.04,0,0,0,0.00
2013-8-16,78.0,66.0,57.0,61.0,52.8,-99.9,92,69,44,30.16,30.09,0,0,0,0.00
2013-8-17,79.0,67.4,58.0,59.0,54.7,-99.9,90,68,49,30.16,30.06,0,0,0,0.00
2013-8-18,80.0,70.5,61.0,61.0,57.8,55.0,81,65,48,30.09,29.95,0,0,0,0.00
2013-8-19,84.0,69.7,66.0,70.0,53.2,-99.9,81,72,62,29.98,29.84,0,0,0,0.00
2013-8-20,86.0,76.4,70.0,73.0,67.4,-99.9,85,77,65,29.85,29.79,0,0,0,0.00
2013-8-21,89.0,77.8,71.0,76.0,70.8,61.0,90,80,63,29.94,29.77,0,0,0,0.00
2013-8-22,89.0,76.1,65.0,62.0,56.1,51.0,70,52,31,30.07,29.93,0,0,0,0.00
2013-8-23,86.0,73.4,61.0,68.0,61.1,51.0,81,66,53,30.09,29.98,0,0,0,0.00
2013-8-24,87.0,76.7,71.0,73.0,67.1,-99.9,84,75,60,30.00,29.86,0,0,0,0.00
2013-8-25,92.0,83.3,76.0,76.0,72.7,70.0,82,71,58,29.93,29.85,0,0,0,0.00
2013-8-26,92.0,83.2,76.0,78.0,74.4,72.0,88,76,60,29.91,29.76,0,0,0,0.00
2013-8-27,93.0,80.6,75.0,79.0,73.6,70.0,86,80,63,29.77,29.72,0,0,0,0.00
2013-8-28,88.0,83.6,78.0,75.0,72.5,71.0,83,70,59,29.94,29.89,0,0,0,0.00
2013-8-29,90.0,81.3,75.0,76.0,72.2,68.0,90,75,53,29.93,29.78,0,0,0,0.00
2013-8-30,87.0,76.3,69.0,71.0,67.4,64.0,89,75,53,29.87,29.75,0,0,0,0.00
2013-8-31,87.0,72.5,65.0,70.0,63.4,-99.9,91,76,56,29.84,29.66,0,0,0,0.00
2013-9-1,71.0,66.7,59.0,64.0,59.6,54.0,89,78,66,29.95,29.69,0,0,0,0.00
2013-9-2,70.0,58.0,51.0,56.0,52.3,48.0,93,82,57,30.08,29.95,0,0,0,0.00
2013-9-3,77.0,62.8,50.0,62.0,55.0,48.0,94,77,54,30.07,29.96,0,0,0,0.00
2013-9-4,89.0,72.5,60.0,70.0,62.8,57.0,93,73,45,30.10,29.97,0,0,0,0.00
2013-9-5,86.0,72.9,64.0,69.0,61.3,55.0,84,68,53,30.16,30.05,0,0,0,0.00
2013-9-6,88.0,77.6,70.0,70.0,67.5,65.0,90,73,51,30.05,29.81,0,0,0,0.00
2013-9-7,95.0,78.8,68.0,73.0,66.0,-99.9,92,69,43,29.95,29.80,0,0,0,0.00
2013-9-8,76.0,69.3,65.0,65.0,61.4,57.0,82,76,69,29.98,29.83,0,0,0,0.00
2013-9-9,92.0,77.3,69.0,74.0,68.8,64.0,92,77,50,29.83,29.57,0,0,0,0.00
2013-9-10,81.0,72.0,67.0,69.0,64.3,61.0,91,78,52,29.94,29.70,0,0,0,0.00
2013-9-11,84.0,72.0,63.0,63.0,57.7,50.0,89,64,35,30.03,29.93,0,0,0,0.00
2013-9-12,74.0,63.7,53.0,56.0,49.6,46.0,90,62,39,30.20,30.03,0,0,0,0.00
2013-9-13,72.0,58.9,48.0,49.0,46.6,44.0,88,66,42,30.26,30.06,0,0,0,0.00
2013-9-14,69.0,58.3,52.0,56.0,48.0,-99.9,92,72,49,30.06,29.86,0,0,0,0.00
2013-9-15,68.0,58.5,51.0,57.0,53.2,46.0,93,83,62,30.29,29.85,0,0,0,0.00
2013-9-16,69.0,55.6,43.0,48.0,44.8,40.0,90,69,44,30.39,30.23,0,0,0,0.00
2013-9-17,65.0,57.4,52.0,57.0,50.6,45.0,92,79,68,30.23,29.91,0,0,0,0.00
2013-9-18,71.0,61.9,59.0,68.0,59.8,57.0,94,93,90,29.91,29.64,0,0,0,0.00
2013-9-19,76.0,69.8,63.0,69.0,65.0,54.0,94,85,72,29.76,29.59,0,0,0,0.00
2013-9-20,63.0,57.1,51.0,55.0,51.0,46.0,90,80,62,29.92,29.75,0,0,0,0.00
2013-9-21,68.0,53.1,45.0,51.0,44.5,-99.9,92,77,51,29.98,29.89,0,0,0,0.00
2013-9-22,76.0,61.2,49.0,58.0,51.5,46.0,91,72,51,29.94,29.80,0,0,0,0.00
2013-9-23,74.0,63.8,56.0,55.0,52.5,49.0,80,68,48,29.90,29.82,0,0,0,0.00
2013-9-24,80.0,63.3,53.0,58.0,52.9,49.0,86,70,43,29.93,29.88,0,0,0,0.00
2013-9-25,76.0,63.6,53.0,56.0,53.2,50.0,92,71,46,29.93,29.81,0,0,0,0.00
2013-9-26,81.0,68.0,58.0,62.0,56.7,51.0,80,68,51,29.88,29.77,0,0,0,0.00
2013-9-27,83.0,72.7,67.0,65.0,61.8,60.0,81,69,50,29.86,29.73,0,0,0,0.00
2013-9-28,73.0,60.3,49.0,62.0,52.0,-99.9,91,77,66,29.91,29.58,0,0,0,0.00
2013-9-29,76.0,60.5,47.0,51.0,46.0,41.0,82,62,35,29.94,29.76,0,0,0,0.00
2013-9-30,79.0,66.9,58.0,54.0,50.3,46.0,70,56,41,29.76,29.54,0,0,0,0.00
2013-10-1,67.0,58.6,54.0,42.0,39.3,38.0,59,49,35,29.95,29.87,0,0,0,0.00
2013-10-2,76.0,60.2,45.0,55.0,44.8,39.0,93,62,30,30.01,29.81,0,0,0,0.00
2013-10-3,58.0,56.2,54.0,56.0,54.2,52.0,94,93,91,29.92,29.81,0,0,0,0.00
2013-10-4,57.0,55.4,53.0,55.0,52.8,51.0,94,92,88,29.96,29.80,0,0,0,0.00
2013-10-5,58.0,52.9,42.0,56.0,48.6,40.0,94,86,66,29.82,29.72,0,0,0,0.00
2013-10-6,52.0,45.8,41.0,50.0,43.8,39.0,95,93,88,29.85,29.68,0,0,0,0.00
2013-10-7,69.0,53.3,43.0,49.0,43.8,40.0,92,73,36,29.96,29.83,0,0,0,0.00
2013-10-8,76.0,63.4,52.0,49.0,46.3,43.0,76,56,35,29.95,29.78,0,0,0,0.00
2013-10-9,76.0,64.8,57.0,54.0,50.3,47.0,74,60,44,29.99,29.88,0,0,0,0.00
2013-10-10,77.0,64.5,55.0,57.0,50.6,46.0,76,62,45,29.99,29.82,0,0,0,0.00
2013-10-11,72.0,64.5,57.0,61.0,54.5,50.0,86,71,56,29.83,29.57,0,0,0,0.00
2013-10-12,59.0,49.8,46.0,53.0,41.2,-99.9,83,75,65,30.17,29.65,0,0,0,0.00
2013-10-13,63.0,48.2,36.0,42.0,37.3,33.0,91,69,36,30.44,30.17,0,0,0,0.00
2013-10-14,53.0,48.0,41.0,46.0,40.3,37.0,91,75,60,30.40,29.96,0,0,0,0.00
2013-10-15,52.0,49.0,45.0,50.0,46.9,42.0,94,92,91,29.95,29.65,0,0,0,0.00
2013-10-16,54.0,46.1,41.0,43.0,39.3,35.0,93,78,52,29.96,29.83,0,0,0,0.00
2013-10-17,56.0,45.6,40.0,44.0,38.9,33.0,92,78,55,29.88,29.77,0,0,0,0.00
2013-10-18,52.0,43.3,37.0,39.0,34.6,30.0,92,73,46,29.98,29.86,0,0,0,0.00
2013-10-19,46.0,38.6,34.0,39.0,33.1,-99.9,92,83,73,29.85,29.69,0,0,0,0.00
2013-10-20,45.0,37.0,30.0,39.0,33.1,27.0,92,86,75,29.91,29.62,0,0,0,0.00
2013-10-21,39.0,34.1,29.0,33.0,24.1,20.0,84,67,55,29.98,29.90,0,0,0,0.00
2013-10-22,41.0,33.4,26.0,31.0,27.3,22.0,90,79,63,30.06,29.97,0,0,0,0.00
2013-10-23,38.0,33.5,32.0,29.0,25.1,20.0,85,72,56,30.14,30.02,0,0,0,0.00
2013-10-24,42.0,36.5,31.0,31.0,27.1,22.0,84,69,57,30.33,30.14,0,0,0,0.00
2013-10-25,58.0,48.0,27.0,43.0,36.5,24.0,89,65,53,30.29,29.79,0,0,0,0.00
2013-10-26,50.0,41.8,35.0,41.0,29.5,-99.9,76,63,50,30.11,29.80,0,0,0,0.00
2013-10-27,61.0,42.4,31.0,36.0,30.6,26.0,83,65,38,30.14,29.82,0,0,0,0.00
2013-10-28,47.0,36.1,30.0,30.0,24.1,-99.9,84,66,40,30.44,30.14,0,0,0,0.00
2013-10-29,40.0,36.3,30.0,36.0,29.6,25.0,91,77,72,30.43,30.11,0,0,0,0.00
2013-10-30,48.0,43.7,38.0,46.0,41.7,36.0,94,93,91,30.11,29.67,0,0,0,0.00
2013-10-31,48.0,41.8,39.0,46.0,39.6,36.0,95,93,87,29.67,29.41,0,0,0,0.00
2013-11-1,51.0,42.5,37.0,39.0,36.2,33.0,91,79,59,29.86,29.42,0,0,0,0.00
2013-11-2,49.0,39.1,32.0,36.0,30.6,-99.9,90,76,51,30.10,29.87,0,0,0,0.00
2013-11-3,55.0,45.0,36.0,36.0,34.2,31.0,90,67,45,30.11,29.86,0,0,0,0.00
2013-11-4,48.0,44.3,36.0,43.0,37.2,32.0,89,76,62,30.14,29.80,0,0,0,0.00
2013-11-5,43.0,34.4,29.0,32.0,29.2,26.0,92,82,53,30.26,30.05,0,0,0,0.00
2013-11-6,36.0,31.5,27.0,31.0,26.8,23.0,92,82,70,30.19,30.05,0,0,0,0.00
2013-11-7,35.0,28.7,23.0,30.0,25.4,21.0,92,87,80,30.27,30.19,0,0,0,0.00
2013-11-8,45.0,35.7,24.0,38.0,28.7,22.0,92,77,58,30.22,29.61,0,0,0,0.00
2013-11-9,43.0,39.4,35.0,39.0,30.7,-99.9,87,74,61,30.22,29.64,0,0,0,0.00
2013-11-10,40.0,36.7,33.0,31.0,29.1,27.0,80,74,66,30.34,30.11,0,0,0,0.00
2013-11-11,36.0,23.6,15.0,31.0,13.0,8.0,82,64,50,30.77,30.14,0,0,0,0.00
2013-11-12,28.0,19.4,11.0,15.0,10.1,6.0,84,68,48,30.84,30.50,0,0,0,0.00
2013-11-13,53.0,36.5,22.0,35.0,25.0,14.0,72,63,50,30.49,29.89,0,0,0,0.00
2013-11-14,54.0,41.1,35.0,40.0,33.7,30.0,85,75,59,29.88,29.75,0,0,0,0.00
2013-11-15,55.0,43.5,32.0,40.0,35.3,29.0,90,74,53,29.85,29.62,0,0,0,0.00
2013-11-16,48.0,43.1,40.0,46.0,38.7,-99.9,94,87,71,29.62,29.21,0,0,0,0.00
2013-11-17,44.0,39.0,31.0,42.0,34.6,25.0,94,84,77,29.84,29.29,0,0,0,0.00
2013-11-18,35.0,28.7,23.0,24.0,21.1,19.0,85,73,59,30.28,29.85,0,0,0,0.00
2013-11-19,46.0,36.7,25.0,32.0,26.8,21.0,84,68,51,30.28,29.91,0,0,0,0.00
2013-11-20,46.0,42.2,38.0,34.0,30.7,27.0,86,65,50,30.02,29.87,0,0,0,0.00
2013-11-21,38.0,29.5,23.0,35.0,24.6,15.0,90,82,70,30.55,30.03,0,0,0,0.00
2013-11-22,35.0,21.8,12.0,15.0,10.4,3.0,84,64,32,30.69,30.50,0,0,0,0.00
2013-11-23,19.0,10.8,6.0,5.0,0.9,-99.9,81,67,46,30.91,30.70,0,0,0,0.00
2013-11-24,32.0,19.3,6.0,17.0,9.3,1.0,85,66,48,30.78,30.03,0,0,0,0.00
2013-11-25,38.0,32.8,27.0,28.0,23.6,16.0,83,69,57,30.10,29.93,0,0,0,0.00
2013-11-26,30.0,20.2,13.0,21.0,8.6,3.0,74,60,49,30.43,30.10,0,0,0,0.00
2013-11-27,23.0,16.5,6.0,12.0,8.1,2.0,88,70,56,30.45,30.11,0,0,0,0.00
2013-12-8,12.0,6.5,-5.0,8.0,2.7,-9.0,87,84,78,30.68,30.11,0,0,0,0.00
2013-12-9,10.0,0.1,-5.0,7.0,-5.0,-10.0,87,79,69,30.19,29.95,0,0,0,0.00
2013-12-10,13.0,6.4,1.0,10.0,1.0,-5.0,87,78,70,30.35,29.84,0,0,0,0.00
2013-12-11,5.0,-3.7,-9.0,-2.0,-10.1,-14.0,79,73,66,30.66,30.35,0,0,0,0.00
2013-12-12,18.0,10.2,0.0,11.0,4.7,-6.0,92,78,68,30.40,30.20,0,0,0,0.00
2013-12-13,17.0,13.0,10.0,10.0,7.6,6.0,85,79,70,30.34,30.17,0,0,0,0.00
2013-12-14,13.0,8.2,0.0,7.0,2.2,-99.9,85,80,75,30.34,30.16,0,0,0,0.00
2013-12-15,4.0,0.7,-1.0,-5.0,-6.8,-9.0,77,70,59,30.23,30.17,0,0,0,0.00
2013-12-16,21.0,9.6,2.0,18.0,4.7,-5.0,89,80,70,30.20,29.98,0,0,0,0.00
2013-12-17,33.0,23.4,8.0,28.0,16.9,4.0,87,76,62,30.14,29.94,0,0,0,0.00
2013-12-18,35.0,23.0,6.0,27.0,17.5,3.0,89,79,67,30.10,29.69,0,0,0,0.00
2013-12-19,27.0,17.1,14.0,22.0,11.8,8.0,87,79,69,30.10,29.84,0,0,0,0.00
2013-12-20,18.0,14.5,11.0,13.0,10.7,8.0,87,84,79,30.08,29.90,0,0,0,0.00
2013-12-21,21.0,17.1,15.0,15.0,11.2,-99.9,85,81,76,30.04,29.91,0,0,0,0.00
2013-12-22,16.0,11.9,2.0,11.0,7.6,-3.0,86,83,79,30.31,30.00,0,0,0,0.00
2013-12-27,39.0,28.9,15.0,31.0,24.8,12.0,92,85,71,30.20,29.92,0,0,0,0.00
2013-12-28,44.0,30.5,19.0,32.0,24.4,-99.9,93,82,60,30.02,29.65,0,0,0,0.00
2013-12-29,18.0,-1.5,-14.0,13.0,-9.8,-20.0,82,67,53,30.38,30.03,0,0,0,0.00
2013-12-30,3.0,-4.7,-15.0,-2.0,-9.4,-21.0,84,79,75,30.39,30.27,0,0,0,0.00
2013-12-31,0.0,-5.6,-10.0,-6.0,-10.9,-15.0,92,77,66,30.50,30.29,0,0,0,0.00
2014-1-1,1.0,-2.5,-7.0,-7.0,-9.8,-14.0,73,70,67,30.59,30.50,0,0,0,0.00
2014-1-2,3.0,-4.2,-11.0,-8.0,-13.0,-16.0,78,66,45,30.60,30.47,0,0,0,0.00